Dewpoint
62 62 62 63 63 65 67 67 67 68 69 70 70 70 70 71 72 72 73 73 73 73 73 73 72 72 72 71 71 72 72 73 73 72 72 72 72 73 73 73 73 72 72 71 70 72 71 71 72 73 73 72 72 70 70 69 69 70 70 71 70 69 69 68 69 70 68 67 67 67 67 68 68 69 70 69 67 69 70 71 71 72 72 72 72
61 61 61 62 62 64 66 66 68 67 68 69 69 69 70 71 71 71 72 73 73 73 73 73 72 72 72 72 72 72 73 73 73 73 72 72 73 73 74 73 72 72 72 71 71 71 72 72 73 73 73 71 70 70 70 71 70 71 70 70 69 69 68 68 69 69 67 65 64 64 65 65 67 67 67 64 65 67 68 70 70 70 69 70 71
60 60 60 60 61 63 65 66 66 66 67 68 69 69 69 70 70 71 72 72 72 73 73 72 72 73 72 72 72 72 73 74 73 73 74 72 73 73 73 72 72 72 73 72 71 72 72 72 72 72 71 70 69 67 67 69 68 69 69 69 68 68 68 69 69 68 67 67 66 64 62 62 64 65 65 64 65 66 67 66 67 66 67 68 70
59 59 59 59 60 63 64 65 65 66 67 67 68 68 69 70 69 70 71 72 72 73 74 73 73 73 72 73 73 72 72 73 69 70 73 73 73 72 73 72 72 72 72 73 73 72 72 72 72 70 69 68 68 69 67 68 68 69 69 68 68 66 67 67 69 69 68 67 63 62 63 62 58 61 63 64 65 65 66 65 66 66 67 68 68
59 59 59 60 60 62 63 65 65 65 66 66 67 68 69 69 69 70 71 72 72 74 74 73 73 73 73 71 71 69 68 67 67 67 69 72 71 72 72 72 72 72 72 73 73 73 72 72 70 70 68 68 68 66 67 67 68 68 68 68 68 67 65 66 68 69 67 68 66 64 62 60 59 61 62 63 64 63 64 64 65 66 66 67 68
59 60 60 60 61 62 63 64 65 65 65 66 67 68 68 69 69 70 70 71 72 72 73 73 74 72 71 71 69 68 67 66 66 66 67 70 71 72 72 72 72 72 72 72 73 72 70 70 69 69 68 69 69 68 68 67 67 68 69 69 68 68 68 67 66 67 67 68 68 67 65 62 61 63 62 60 64 64 66 65 65 65 66 66 67
60 60 61 61 62 62 63 64 64 65 65 66 67 68 69 69 69 69 70 71 72 72 73 73 73 72 71 71 71 69 68 65 65 66 68 68 69 71 72 72 72 71 70 69 69 70 68 68 68 68 68 69 71 68 68 67 68 68 69 68 68 69 68 66 66 65 65 67 67 68 67 68 67 64 61 62 60 63 64 63 62 64 64 65 66
59 61 61 62 63 63 63 64 64 65 65 66 67 68 69 69 69 70 70 71 72 72 73 73 72 72 71 71 71 69 68 67 64 65 66 67 68 69 69 69 68 68 67 67 67 69 68 68 68 68 68 69 71 68 68 68 67 68 71 70 69 69 67 67 66 65 65 66 67 67 67 67 67 67 66 63 61 60 61 61 62 62 63 62 64
59 61 61 62 63 64 64 64 65 65 66 67 68 68 69 70 70 70 70 71 72 72 73 73 73 72 71 71 70 70 66 66 65 67 66 69 66 65 66 66 67 67 66 66 67 67 71 68 68 68 68 68 71 69 68 68 67 66 68 69 68 68 67 67 66 65 65 65 65 65 65 65 64 65 65 65 63 59 59 59 60 62 62 62 62
59 61 62 62 63 64 65 65 65 65 66 68 68 69 69 70 70 71 71 71 72 73 73 73 73 72 71 70 70 68 66 65 65 65 65 65 64 64 65 66 66 66 66 67 67 67 71 69 68 68 68 68 70 68 67 67 67 67 67 67 66 67 67 68 67 66 66 66 66 66 64 64 63 63 63 64 63 63 59 59 60 60 59 61 62
59 61 62 63 64 65 65 66 66 66 67 68 69 69 70 70 71 71 71 72 72 73 73 72 72 72 71 70 69 67 65 64 64 64 64 64 63 63 64 65 65 64 66 67 66 68 69 69 68 67 67 70 71 68 68 68 68 68 68 67 66 66 66 68 68 67 66 66 65 65 64 63 62 61 62 62 62 61 60 59 60 59 60 60 62
58 60 62 63 64 65 66 66 66 67 67 68 69 69 70 70 71 71 71 72 72 73 73 72 72 71 71 69 68 67 65 64 63 63 64 64 63 64 64 64 64 65 66 66 67 67 69 68 68 68 68 69 69 67 67 68 68 68 68 67 66 65 65 67 66 65 66 65 65 65 65 64 64 63 62 63 63 62 62 60 59 60 60 60 61
58 60 62 63 64 65 65 66 67 67 68 68 69 69 70 70 71 71 71 72 72 73 72 72 72 70 69 68 68 66 65 64 63 63 64 63 63 64 64 63 64 64 65 66 66 66 68 66 67 66 67 68 67 67 67 68 68 68 67 66 66 66 66 66 66 66 66 65 66 64 65 64 64 64 64 64 65 64 63 60 59 60 58 59 61
58 59 61 63 64 64 66 66 67 68 68 69 69 70 70 70 71 70 71 72 72 72 72 71 71 70 68 67 66 66 65 64 63 63 64 64 64 64 64 63 63 64 65 65 66 66 67 66 67 66 66 66 68 67 68 68 68 68 67 67 67 67 66 66 67 66 65 65 65 65 65 65 64 64 64 64 64 63 62 61 60 60 60 59 60
59 59 61 62 64 65 65 66 67 68 68 69 69 70 70 70 71 71 71 71 72 71 72 71 70 69 67 66 65 66 65 64 63 63 64 64 64 64 64 64 64 64 64 66 66 66 66 66 67 66 66 66 68 69 70 69 69 69 69 67 68 66 66 67 66 66 66 66 65 65 66 65 65 65 64 64 64 64 63 62 61 58 57 58 58
59 59 61 62 64 65 65 66 67 67 68 69 70 71 71 71 71 71 71 71 71 71 71 70 69 68 66 64 64 65 66 64 64 65 64 65 65 64 64 64 64 64 64 66 66 66 66 66 67 67 66 66 66 67 68 68 68 68 67 68 67 68 67 66 67 66 66 66 65 66 65 66 66 65 65 65 65 64 64 63 62 61 57 55 56
59 60 61 62 63 64 65 66 66 67 68 69 70 71 71 71 71 71 71 71 71 71 70 70 69 67 65 64 64 65 65 64 63 64 63 64 65 65 64 64 65 64 64 66 65 66 66 65 65 66 67 66 66 66 67 67 67 67 67 67 66 66 67 66 66 66 66 66 66 66 66 66 66 66 65 65 65 64 64 64 64 62 60 57 55
59 60 61 62 63 64 65 66 66 67 67 69 70 71 71 71 71 71 72 71 71 70 70 69 68 66 65 64 64 64 64 63 63 64 64 64 65 65 64 64 64 64 64 65 66 65 66 68 66 65 66 66 66 65 66 66 66 66 66 67 66 66 66 66 67 66 66 66 66 66 66 66 66 66 65 66 65 64 64 64 63 63 62 60 58
58 59 60 62 63 64 65 65 66 67 68 68 69 70 71 71 71 71 71 71 71 70 70 69 67 66 65 64 64 64 64 64 64 65 64 64 64 64 64 64 64 65 66 66 66 65 65 65 66 65 65 65 65 65 66 66 66 66 66 66 66 66 66 66 66 66 66 66 66 66 66 65 66 65 65 65 65 64 64 64 63 62 61 61 59
57 58 60 61 62 63 64 64 65 66 67 68 68 70 70 71 71 71 72 72 70 69 69 68 66 66 65 65 64 64 65 64 64 64 64 64 64 64 64 63 64 65 64 65 65 65 65 65 65 65 65 65 65 65 65 66 65 66 66 66 66 66 66 66 66 66 66 66 66 66 66 65 65 65 64 64 64 65 64 63 63 62 61 61 60
56 58 59 60 61 62 64 64 65 66 67 67 68 69 70 71 71 71 71 71 70 69 68 67 66 65 66 65 64 64 64 64 64 64 64 64 64 65 64 64 64 64 64 64 64 65 65 65 65 66 65 65 65 65 65 65 65 65 65 65 65 65 65 65 66 65 65 66 66 66 66 65 65 64 64 64 63 64 64 62 62 61 61 60 59
55 56 58 59 60 62 63 64 65 65 66 67 68 69 69 70 70 71 70 70 69 68 68 67 66 65 65 65 64 64 64 64 64 64 64 63 63 64 64 64 63 63 64 63 64 64 65 65 64 64 65 65 64 64 64 64 65 65 65 65 65 65 65 65 65 65 65 65 65 65 65 64 64 63 63 63 63 62 61 60 60 60 59 59 60
54 55 57 58 60 61 62 64 64 65 66 67 67 68 69 70 70 70 70 70 69 68 67 67 66 65 65 65 64 64 64 64 63 63 63 63 63 64 64 63 63 62 64 64 63 64 64 64 64 64 64 64 64 64 64 64 64 64 64 64 65 65 65 65 64 64 64 64 64 64 64 64 63 63 63 63 63 62 62 61 60 60 60 60 60
54 55 57 58 59 61 63 63 64 64 65 66 67 68 69 69 70 70 70 69 69 68 67 66 66 65 65 65 64 64 64 63 62 63 62 62 62 63 64 63 63 62 62 64 64 64 64 64 63 64 63 63 63 64 64 64 64 64 64 64 64 65 65 65 65 65 64 64 64 63 63 63 63 63 63 63 62 62 62 62 61 61 60 60 60
53 55 57 59 59 61 62 63 63 64 64 66 67 68 68 69 70 69 69 69 69 68 66 66 65 64 64 64 64 64 64 63 62 62 62 62 62 62 63 63 63 62 62 63 64 64 63 63 63 63 63 63 63 63 64 64 64 64 64 64 64 64 64 65 65 65 64 65 64 63 63 63 63 62 62 62 62 62 62 61 61 61 61 60 60
53 56 58 58 60 61 61 62 63 64 64 65 67 67 68 69 69 69 69 69 68 67 66 66 65 65 65 64 64 64 63 63 63 62 62 62 62 63 62 63 63 62 63 63 63 63 64 63 63 63 63 63 63 63 64 64 64 64 64 64 64 65 65 64 64 64 64 64 64 64 63 63 62 62 62 62 62 62 62 61 61 61 61 61 60
53 55 57 59 60 60 61 62 63 63 64 65 66 67 68 69 69 69 69 68 68 67 67 66 65 64 65 65 64 64 64 63 64 63 63 62 62 62 62 62 63 63 62 62 63 63 64 64 64 64 64 63 64 64 64 64 64 64 64 64 64 64 65 64 64 64 64 63 63 63 63 63 62 62 62 62 62 62 62 62 62 61 61 60 60
55 56 57 58 59 60 61 62 63 63 64 65 66 67 68 68 68 69 68 67 67 67 66 66 66 65 65 65 65 66 65 65 64 64 63 63 63 63 64 64 64 64 63 62 62 63 63 64 64 64 63 64 64 63 64 64 64 65 64 64 65 64 64 64 64 64 63 63 63 63 62 63 63 63 62 62 62 62 62 61 61 61 60 60 60
53 55 57 58 59 60 61 62 63 63 64 65 66 67 68 68 68 69 68 67 67 67 66 66 65 65 65 66 66 66 65 65 64 63 63 63 63 63 64 64 64 63 64 63 63 62 62 62 63 63 63 63 63 63 63 63 64 64 64 64 64 64 64 64 64 63 63 63 63 63 63 62 63 63 61 60 60 59 62 62 61 61 61 61 60
52 54 56 58 59 60 61 62 63 64 64 65 66 67 67 68 68 68 68 67 67 67 66 66 65 66 66 66 66 66 65 65 64 63 63 63 63 63 63 63 62 62 62 63 62 62 60 60 61 61 62 62 62 62 63 62 62 63 63 63 64 64 64 64 64 64 63 63 63 63 63 63 62 62 61 59 58 57 57 60 63 62 62 61 60
53 55 57 58 59 60 61 62 63 64 64 65 66 67 67 67 67 67 67 67 66 66 66 64 65 65 66 66 66 65 65 64 64 64 63 63 63 63 63 63 62 62 62 62 63 61 60 60 60 60 60 61 61 61 61 60 60 62 63 63 63 64 64 64 64 63 63 63 63 63 63 63 63 63 63 62 60 58 58 56 56 56 58 62 60
54 56 57 58 59 60 61 61 62 63 64 65 66 67 67 67 67 67 67 67 66 66 65 65 65 66 66 66 65 64 64 65 64 64 64 64 63 63 63 63 62 62 62 62 62 61 61 60 60 60 60 61 60 61 59 59 60 60 62 64 63 63 63 63 63 63 63 63 63 63 63 62 63 63 63 63 62 61 59 58 57 56 56 56 57
55 57 58 58 59 60 61 61 62 63 64 65 66 67 67 67 67 67 68 67 66 65 65 65 66 66 66 66 64 63 64 65 65 64 64 63 64 64 63 62 62 62 62 62 61 61 61 61 61 60 60 60 60 60 58 58 59 59 60 62 64 64 63 63 63 63 63 63 63 63 63 62 62 62 63 64 63 63 60 58 57 57 56 56 56
56 57 57 58 59 60 62 62 63 64 65 66 67 67 67 68 68 68 67 67 67 65 65 65 66 66 66 65 64 64 64 65 65 65 64 64 64 63 63 62 62 62 62 61 61 61 61 61 61 61 61 61 61 60 58 57 57 58 58 60 62 63 63 63 63 63 63 63 63 63 62 62 62 62 63 63 62 63 62 62 62 61 61 60 58
56 57 58 59 60 60 62 63 63 65 66 67 67 68 68 68 68 67 67 67 67 66 66 65 65 65 65 65 65 64 63 64 65 64 64 64 64 63 63 63 62 62 62 61 61 61 61 62 61 61 61 61 62 59 57 57 56 56 57 59 61 62 62 62 63 63 63 63 63 62 62 62 62 62 62 62 63 62 62 61 61 61 61 61 61
57 58 59 60 60 60 61 62 65 65 66 67 67 68 67 67 67 67 67 67 66 66 65 65 64 65 65 64 63 63 62 62 65 65 64 63 63 63 63 63 63 62 62 62 62 61 61 61 61 61 61 61 62 58 57 57 56 56 57 60 61 61 61 61 62 63 63 63 63 62 62 62 62 62 60 57 59 62 61 60 60 60 60 59 59
59 59 60 63 63 62 62 63 64 65 65 67 68 68 67 67 66 66 66 66 66 65 65 65 64 64 64 64 64 62 61 63 64 64 64 64 64 64 63 63 62 62 61 61 61 61 62 61 61 62 62 62 62 60 56 55 55 56 57 61 61 61 61 61 60 62 62 62 62 62 62 62 62 61 59 57 58 57 59 59 58 58 58 58 58
60 62 62 64 65 66 66 64 64 64 65 66 67 67 67 66 65 65 65 65 65 65 65 65 64 64 64 64 64 63 63 64 64 64 64 63 63 63 63 63 62 62 61 61 61 62 62 62 61 62 62 62 61 60 56 54 54 55 58 60 61 60 60 60 60 60 61 61 61 61 62 61 61 62 58 55 55 56 57 57 57 58 58 57 57
60 61 63 64 65 66 66 65 65 64 65 66 66 66 65 64 64 64 64 65 65 65 65 65 64 64 65 65 66 65 65 64 64 64 63 63 62 63 63 63 63 62 62 62 63 62 62 63 63 62 63 63 61 59 56 54 53 54 57 60 61 60 60 59 59 60 60 59 58 61 63 62 61 60 55 54 54 55 57 57 57 57 57 56 57
57 62 63 66 67 66 65 64 64 64 64 65 65 65 65 64 63 64 64 64 65 65 65 66 66 65 66 66 66 65 65 64 64 64 64 63 63 63 63 62 63 63 63 63 64 63 62 63 63 63 62 63 62 62 62 57 54 54 54 60 60 59 59 59 59 59 59 59 59 58 59 57 55 54 52 51 50 51 56 56 56 55 56 56 57
66 66 67 66 65 65 65 65 64 63 63 63 64 64 64 63 63 63 63 64 65 65 65 66 65 66 66 66 66 66 65 65 64 63 63 62 63 63 64 63 63 64 64 63 63 63 63 63 63 62 62 62 62 63 63 57 55 53 54 55 58 59 58 59 59 60 59 58 59 58 57 56 53 51 50 48 47 48 50 55 54 56 57 58 55
68 67 66 65 64 63 63 62 62 62 62 62 63 63 63 63 62 62 63 64 64 64 65 64 64 64 65 65 66 66 66 65 64 63 62 63 64 64 64 64 64 64 63 63 63 63 63 63 63 62 62 63 63 63 63 59 56 53 52 52 58 59 60 59 58 58 59 58 58 58 58 55 52 51 48 46 46 47 49 53 55 50 50 52 55
66 66 66 64 63 63 62 62 62 62 62 62 63 63 63 63 62 62 63 63 64 64 64 64 64 64 64 64 64 64 64 63 63 63 62 63 64 64 64 64 63 63 63 62 63 63 62 62 62 62 62 62 62 62 61 62 57 54 52 51 52 56 55 61 59 58 58 58 58 58 57 55 52 49 46 45 45 46 47 51 48 48 49 51 52
65 65 65 64 63 63 62 62 62 62 62 62 62 63 63 62 61 62 63 63 63 63 64 64 64 64 63 63 64 64 64 64 64 64 63 63 63 64 63 63 63 63 63 62 62 62 61 61 61 62 61 61 61 61 60 59 60 57 52 48 49 50 51 58 60 58 58 57 57 56 56 51 48 44 44 45 46 46 52 48 46 48 50 50 54
64 65 65 64 63 63 63 62 62 62 61 62 62 63 63 61 61 63 63 62 62 63 63 63 62 62 63 63 64 65 64 64 64 64 64 63 63 63 63 63 63 62 62 62 62 61 61 61 61 60 61 60 59 60 60 60 59 59 52 48 49 49 50 50 57 58 58 57 54 49 46 45 46 46 46 47 48 48 47 48 48 49 50 54 54
64 64 65 64 64 63 63 62 62 62 62 63 62 63 63 61 62 63 62 62 62 62 62 62 62 62 62 63 64 64 65 65 65 65 65 64 63 63 63 62 62 62 62 61 61 61 61 60 60 60 60 60 59 59 60 60 60 60 55 51 50 51 51 52 54 56 53 52 51 50 49 49 49 51 55 55 56 54 50 51 52 52 53 53 53
63 64 65 64 64 63 63 63 62 62 63 63 62 63 63 62 63 62 62 62 62 62 63 62 62 62 64 64 63 63 64 64 64 64 64 64 64 63 63 62 62 62 61 61 60 60 60 60 59 59 59 59 59 60 59 59 60 60 58 54 53 54 53 52 54 56 55 54 55 53 54 50 50 53 55 54 54 53 54 53 53 52 52 52 52
62 64 64 63 63 63 64 63 63 63 63 63 63 63 63 62 62 62 62 62 63 62 62 61 62 63 63 63 63 65 64 63 63 63 63 62 62 62 62 61 61 61 60 60 60 59 59 59 59 59 59 59 59 59 59 58 59 59 58 56 55 56 55 55 55 53 52 52 52 52 53 56 56 54 53 52 53 53 53 52 50 50 50 50 48
62 63 64 62 63 64 63 63 63 63 63 63 63 62 61 62 62 62 62 62 62 63 63 62 62 63 64 64 64 65 64 63 61 56 52 51 55 57 58 57 53 53 58 59 59 59 59 59 60 60 59 59 59 58 59 53 58 55 56 55 54 56 54 55 52 49 53 53 55 55 54 54 54 51 50 50 49 49 50 49 48 45 47 48 48
61 62 62 63 64 63 63 63 63 63 63 62 62 61 61 59 59 61 62 63 64 64 64 64 63 63 63 64 63 62 61 61 59 57 54 51 48 43 47 56 54 49 45 42 45 57 55 57 58 59 58 59 58 58 45 42 44 46 47 47 47 46 47 49 45 47 50 53 53 52 53 51 50 50 49 49 48 47 48 47 47 44 44 46 47
61 62 62 62 62 63 63 63 62 63 62 62 61 60 59 59 61 62 63 63 64 64 64 64 64 63 63 63 63 61 60 59 58 57 56 55 52 49 40 42 46 46 42 38 38 39 42 44 54 57 52 46 45 41 39 39 39 39 39 39 39 40 41 41 43 50 52 52 54 52 51 51 50 48 48 47 46 46 46 46 44 44 42 44 45